Back to catalog

FENGYUN 1C DEB

AlivePO
NORAD 38130·DEBRIS·🇨🇳 China

Launched May 10, 1999 from Taiyuan Satellite Launch Center

Loading…

Next Passes (next 24 hours)

TLE

FreshSource: Space-Track

Epoch: Sep 14, 2026, 08:40 UTC

1 38130U 99025EQB 26257.36162218  .00001231  00000-0  10771-2 0  9996
2 38130  98.5889 288.2325 0205714 202.3793 156.8288 13.78190585730789

Track FENGYUN 1C DEB in real time with AllMySat

Download on the App Store